Location: Newark
(44.9333°N, 0.5667°E)
Time: 02:55:10
(UTC+00:00)

ISS - Visible Passes

Search period start: 14 December 2019 00:00
Search period end: 24 December 2019 00:00
Orbit: 411 x 421 km, 51.6° (Epoch: 14 December)

Date Brightness Start Highest point End Pass type
(mag) Time Alt. Az. Time Alt. Az. Time Alt. Az.
19 Dec -0.5 06:55:14 10° S 06:57:17 15° SE 06:59:20 10° E visible
21 Dec -2.1 06:53:31 10° SSW 06:56:36 38° SE 06:59:43 10° ENE visible
22 Dec -1.3 06:05:28 10° SSW 06:08:10 23° SE 06:10:53 10° E visible
23 Dec -0.7 05:17:54 10° SSE 05:19:46 14° SE 05:21:39 10° E visible
23 Dec -3.8 06:52:46 10° WSW 06:56:05 87° NNW 06:59:25 10° ENE visible
